Stations météo

réclame
Mon MeteoGroup
St-Girons, France (7627): Température de l'air & dewpoint: 20.09.2018 17:00:00 - 26.09.2018 17:00:00 (CEST)St-Girons, France (7627): Température de l'air 5cm: 20.09.2018 17:00:00 - 26.09.2018 17:00:00 (CEST)St-Girons, France (7627): Température de l'air -20cm & Température de l'air -100cm: 20.09.2018 17:00:00 - 26.09.2018 17:00:00 (CEST)St-Girons, France (7627): Vitesse du vent & gusts: 20.09.2018 17:00:00 - 26.09.2018 17:00:00 (CEST)St-Girons, France (7627): Direction du vent: 20.09.2018 17:00:00 - 26.09.2018 17:00:00 (CEST)St-Girons, France (7627): reduced air pressure: 20.09.2018 17:00:00 - 26.09.2018 17:00:00 (CEST)St-Girons, France (7627): visibility: 20.09.2018 17:00:00 - 26.09.2018 17:00:00 (CEST)St-Girons, France (7627): Ensoleillement: 20.09.2018 17:00:00 - 26.09.2018 17:00:00 (CEST)St-Girons, France (7627): Quantités de précipitations: 20.09.2018 17:00:00 - 26.09.2018 17:00:00 (CEST)
Date & Time tt [°C] td [°C] tt 5cm [°C] tt -20cm [°C] tt -100cm [°C] ff [km/h] ff [knt] fx [km/h] fx [knt] dd ppp [hPa] vv [km] sd [min] rr [mm]
26.09.2018 17:00:00 - - - - - - - - - - - - - -
26.09.2018 16:00:00 24,9 12,8 34,5 19,3 20,0 7 4 16 9 ENE 1026,5 20 60 0,0
26.09.2018 15:00:00 24,6 12,2 32,4 19,2 20,0 8 4 13 7 NE 1026,9 20 60 0,0
26.09.2018 14:00:00 23,3 13,2 32,8 19,2 20,0 5 3 12 7 N 1027,7 20 60 0,0
26.09.2018 13:00:00 22,2 13,3 30,9 19,2 20,0 5 3 11 6 E 1028,3 20 60 0,0
26.09.2018 12:00:00 19,9 11,9 26,0 19,2 20,0 6 4 13 7 E 1028,7 20 60 0,0
26.09.2018 11:00:00 17,1 11,1 20,8 19,3 20,0 8 4 16 8 E 1029,3 20 60 0,0
26.09.2018 10:00:00 15,1 11,3 12,0 19,4 20,0 7 4 14 8 SE 1029,3 20 60 0,0
26.09.2018 09:00:00 10,8 10,2 5,7 19,6 20,1 4 2 9 5 SSE 1029,8 20 37 0,0
26.09.2018 08:00:00 8,0 7,2 5,4 19,7 20,0 0 0 7 4 N 1029,6 19 0 0,0
26.09.2018 07:00:00 7,9 7,1 5,4 19,7 20,0 2 1 7 4 SSW 1029,3 18 0 0,0
26.09.2018 06:00:00 8,4 7,5 5,7 19,9 20,1 0 0 5 3 N 1028,9 8 0 0,0
26.09.2018 05:00:00 9,9 8,8 6,5 19,9 20,1 2 1 13 7 E 1028,8 20 0 0,0
26.09.2018 04:00:00 10,6 9,0 7,4 20,0 20,0 5 3 18 10 SE 1028,4 20 0 0,2
26.09.2018 03:00:00 9,2 8,3 6,9 20,1 20,0 3 2 7 4 SSW 1028,9 20 0 0,0
26.09.2018 02:00:00 9,5 8,6 6,9 20,2 20,1 6 3 9 5 S 1029,2 20 0 0,0
26.09.2018 01:00:00 9,6 8,5 7,2 20,3 20,1 2 1 8 4 WSW 1029,3 20 0 0,0
26.09.2018 00:00:00 10,0 8,9 7,6 20,4 20,1 0 0 10 5 N 1029,2 20 0 0,0
25.09.2018 23:00:00 10,4 9,3 7,6 20,4 20,1 3 1 5 3 WSW 1029,3 20 0 0,0
25.09.2018 22:00:00 10,8 9,1 8,6 20,3 20,0 4 2 8 4 SW 1028,9 20 0 0,0
25.09.2018 21:00:00 12,2 9,9 9,3 20,3 20,1 0 0 10 5 N 1028,1 20 0 0,0
25.09.2018 20:00:00 13,3 10,3 - - - 9 5 11 6 WSW 1027,5 20 - -
25.09.2018 19:00:00 19,1 10,6 23,1 20,2 20,1 3 1 12 6 NNW 1026,1 20 60 0,0
25.09.2018 18:00:00 19,5 9,1 27,3 20,1 20,1 5 3 14 7 NE 1026,0 20 60 0,0
25.09.2018 17:00:00 19,7 9,0 27,2 19,9 20,1 3 1 17 9 ENE 1026,2 20 60 0,0
25.09.2018 16:00:00 19,5 9,7 27,6 19,8 20,1 6 4 19 10 N 1026,4 20 60 0,0
25.09.2018 15:00:00 18,6 9,6 23,7 19,8 20,1 6 3 21 11 NNW 1026,8 20 52 0,0
25.09.2018 14:00:00 18,4 9,2 26,2 19,8 20,1 5 3 16 9 ENE 1027,1 20 60 0,0
25.09.2018 13:00:00 17,1 9,3 25,9 19,8 20,1 6 3 16 9 NW 1027,5 20 60 0,0
25.09.2018 12:00:00 16,6 8,3 25,3 19,8 20,1 5 3 12 7 N 1027,8 20 60 0,0
25.09.2018 11:00:00 16,4 8,9 20,6 19,9 20,1 3 2 14 8 ESE 1028,1 20 60 0,0
25.09.2018 10:00:00 14,5 9,1 12,3 19,9 20,1 8 4 12 6 SSE 1028,0 20 60 0,0
25.09.2018 09:00:00 10,0 9,2 8,5 20,0 20,1 0 0 3 2 N 1028,7 5 53 0,0
25.09.2018 08:00:00 9,1 8,2 8,6 20,0 20,1 0 0 3 2 N 1028,7 0,1 0 0,0
25.09.2018 07:00:00 10,1 9,3 10,1 20,1 20,1 0 0 3 2 N 1028,2 0,1 0 0,0
25.09.2018 06:00:00 10,3 9,4 10,0 20,2 20,1 0 0 5 3 N 1028,5 0,1 0 0,0
25.09.2018 05:00:00 11,5 10,6 11,3 20,2 20,1 0 0 5 3 N 1028,5 13 0 0,0
25.09.2018 04:00:00 11,5 10,6 11,5 20,3 20,1 0 0 4 2 N 1028,8 16 0 0,0
25.09.2018 03:00:00 11,7 10,8 11,5 20,4 20,1 0 0 6 3 N 1029,2 20 0 0,0
25.09.2018 02:00:00 11,7 10,8 11,5 20,4 20,1 0 0 4 2 N 1029,5 16 0 0,0
25.09.2018 01:00:00 11,6 10,7 11,0 20,5 20,1 0 0 4 2 N 1029,6 14 0 0,0
25.09.2018 00:00:00 11,3 10,4 9,3 20,6 20,1 2 1 5 3 SSW 1030,1 20 0 0,0
24.09.2018 23:00:00 11,6 10,2 11,3 20,6 20,1 0 0 3 2 N 1030,1 20 0 0,0
24.09.2018 22:00:00 12,2 10,4 11,6 20,6 20,1 0 0 4 2 N 1030,2 20 0 0,0
24.09.2018 21:00:00 12,9 11,0 12,2 20,7 20,1 0 0 5 3 N 1030,0 20 0 0,0
24.09.2018 20:00:00 13,4 10,2 12,5 20,7 20,1 5 3 18 10 NW 1029,6 19 0 0,0
24.09.2018 19:00:00 13,5 11,2 13,3 20,7 20,1 8 5 18 10 W 1029,3 20 0 0,2
24.09.2018 18:00:00 13,0 11,7 13,1 20,7 20,1 10 5 24 13 WNW 1029,2 7 0 0,0
24.09.2018 17:00:00 13,9 11,4 14,6 20,8 20,1 17 9 29 16 WNW 1029,0 19 0 0,0
24.09.2018 16:00:00 14,8 11,9 15,4 20,8 20,1 16 9 34 18 NW 1029,0 20 0 0,0
24.09.2018 15:00:00 14,3 11,6 15,3 20,8 20,1 19 11 33 18 NW 1029,1 20 0 0,0
24.09.2018 14:00:00 14,4 12,3 15,5 20,9 20,1 16 9 28 15 NNW 1029,2 20 0 0,0
24.09.2018 13:00:00 14,4 12,3 15,4 20,9 20,1 16 8 34 18 NW 1029,4 19 5 0,0
24.09.2018 12:00:00 15,7 14,4 15,5 20,9 20,1 18 10 28 15 WNW 1028,8 12 8 0,6
24.09.2018 11:00:00 15,3 14,3 15,6 21,0 20,1 16 9 24 13 NNW 1028,5 6 0 3,0
24.09.2018 10:00:00 15,5 14,5 15,7 21,0 20,1 18 10 33 18 NW 1027,6 6 0 1,6
24.09.2018 09:00:00 16,3 15,5 16,3 21,0 20,1 14 8 29 16 NW 1026,6 2,3 0 1,9
24.09.2018 08:00:00 16,7 15,9 16,5 21,1 20,1 12 6 27 15 NW 1026,0 2,0 0 2,6
24.09.2018 07:00:00 17,3 16,3 17,1 21,1 20,1 15 8 22 12 NNW 1025,4 16 0 1,4
24.09.2018 06:00:00 18,0 16,2 17,3 21,2 20,1 11 6 17 9 WNW 1024,8 4,3 0 0,2
24.09.2018 05:00:00 18,7 15,9 18,0 21,2 20,1 8 4 10 6 WNW 1024,6 20 0 0,0
24.09.2018 04:00:00 18,4 16,4 17,9 21,2 20,1 4 2 6 3 WSW 1024,9 19 0 0,0
24.09.2018 03:00:00 18,4 16,0 16,9 21,3 20,1 2 1 9 5 ESE 1025,4 20 0 0,0
24.09.2018 02:00:00 18,7 15,6 17,3 21,4 20,1 5 3 23 13 NNW 1025,5 20 0 0,0
24.09.2018 01:00:00 19,4 15,9 18,8 21,4 20,1 13 7 30 16 NW 1025,5 20 0 0,0
24.09.2018 00:00:00 19,8 16,2 18,8 21,4 20,1 13 7 29 16 WNW 1025,4 20 0 0,0
23.09.2018 23:00:00 20,2 16,2 16,8 21,4 20,1 13 7 29 16 WNW 1025,4 20 0 0,0
23.09.2018 22:00:00 19,8 15,4 16,6 21,4 20,1 4 2 12 7 NW 1024,9 20 0 0,0
23.09.2018 21:00:00 21,2 15,9 17,8 21,3 20,1 6 3 12 6 W 1024,3 20 0 0,0
23.09.2018 20:00:00 21,6 16,8 19,4 21,2 20,1 8 4 13 7 W 1023,5 20 0 0,0
23.09.2018 19:00:00 25,3 16,2 23,6 21,2 20,2 5 3 20 11 W 1021,9 20 50 0,0
23.09.2018 18:00:00 27,0 15,4 31,2 21,0 20,1 11 6 23 13 NNW 1021,2 20 60 0,0
23.09.2018 17:00:00 27,2 16,8 32,2 20,9 20,1 14 8 23 12 NW 1020,7 20 60 0,0
23.09.2018 16:00:00 26,9 16,2 33,5 20,7 20,1 10 6 19 11 NW 1020,9 20 60 0,0
23.09.2018 15:00:00 26,9 15,9 34,1 20,6 20,1 8 4 16 9 NNW 1021,1 20 60 0,0
23.09.2018 14:00:00 25,9 17,0 33,6 20,5 20,1 6 4 17 9 NW 1021,9 20 60 0,0
23.09.2018 13:00:00 25,1 15,1 34,5 20,5 20,1 5 3 11 6 NNE 1022,5 20 60 0,0
23.09.2018 12:00:00 23,5 15,3 32,1 20,5 20,1 4 2 13 7 N 1023,3 20 60 0,0
23.09.2018 11:00:00 23,1 16,2 28,1 20,6 20,1 0 0 6 3 N 1023,8 20 60 0,0
23.09.2018 10:00:00 19,9 15,9 17,3 20,7 20,1 0 0 7 4 N 1024,1 20 60 0,0
23.09.2018 09:00:00 15,7 14,9 11,4 20,8 20,1 0 0 4 2 N 1024,6 20 40 0,0
23.09.2018 08:00:00 13,5 12,9 10,7 20,9 20,1 2 1 6 3 W 1024,8 20 0 0,0
23.09.2018 07:00:00 13,2 12,4 10,4 21,0 20,1 0 0 3 1 N 1024,6 1,8 0 0,0
23.09.2018 06:00:00 13,4 12,6 11,0 21,0 20,1 3 1 4 2 W 1025,1 2,2 0 0,0
23.09.2018 05:00:00 14,3 13,5 11,2 21,2 20,1 0 0 4 2 N 1025,1 3,6 0 0,2
23.09.2018 04:00:00 14,8 14,2 11,7 21,3 20,1 2 1 8 4 ESE 1025,5 20 0 0,0
23.09.2018 03:00:00 14,5 13,7 11,6 21,3 20,1 0 0 4 2 N 1025,8 8 0 0,0
23.09.2018 02:00:00 15,5 14,9 11,8 21,4 20,1 3 1 5 3 WSW 1025,7 20 0 0,0
23.09.2018 01:00:00 15,0 14,0 12,3 21,5 20,1 2 1 5 3 WSW 1025,9 20 0 0,0
23.09.2018 00:00:00 16,0 15,2 12,9 21,5 20,2 0 0 6 3 N 1025,6 19 0 0,0
22.09.2018 23:00:00 16,2 15,1 13,4 21,5 20,1 2 1 6 3 W 1025,4 14 0 0,0
22.09.2018 22:00:00 17,1 15,6 14,2 21,5 20,1 0 0 5 3 N 1024,9 20 0 0,0
22.09.2018 21:00:00 18,6 16,0 16,2 21,5 20,1 3 1 12 7 S 1024,2 20 0 0,0
22.09.2018 20:00:00 19,9 16,7 18,1 21,3 20,1 5 3 7 4 SW 1023,7 20 22 0,0
22.09.2018 19:00:00 25,3 17,5 27,7 21,3 20,1 3 1 15 8 W 1022,3 20 60 0,0
22.09.2018 18:00:00 25,3 16,2 30,3 21,2 20,1 10 5 17 9 NNW 1022,1 20 60 0,0
22.09.2018 17:00:00 25,2 15,5 30,8 21,0 20,1 13 7 23 13 WNW 1022,2 20 60 0,0
22.09.2018 16:00:00 25,1 16,8 31,3 20,9 20,1 13 7 22 12 NW 1022,2 20 60 0,0
22.09.2018 15:00:00 24,5 16,5 32,7 20,9 20,1 5 3 15 8 NW 1022,3 20 60 0,0
22.09.2018 14:00:00 23,0 16,1 26,4 20,8 20,1 3 2 14 8 SSW 1023,1 20 30 0,0
22.09.2018 13:00:00 22,3 15,2 26,9 20,8 20,1 3 1 9 5 N 1023,3 20 44 0,0
22.09.2018 12:00:00 20,9 15,4 23,0 20,8 20,1 0 0 12 6 N 1023,6 20 26 0,0
22.09.2018 11:00:00 19,8 15,6 19,6 20,9 20,1 5 3 16 9 W 1024,1 20 27 0,0
22.09.2018 10:00:00 18,7 16,5 16,2 20,9 20,1 4 2 10 5 NE 1023,5 20 27 0,0
22.09.2018 09:00:00 16,0 14,9 15,6 20,9 20,1 0 0 5 3 N 1023,8 17 0 0,0
22.09.2018 08:00:00 15,7 14,6 15,3 21,0 20,1 0 0 7 4 N 1024,0 20 0 0,0
22.09.2018 07:00:00 15,5 14,4 15,3 21,0 20,1 3 2 10 5 SSW 1023,9 14 0 0,0
22.09.2018 06:00:00 16,1 15,1 16,0 21,1 20,1 4 2 8 5 N 1023,8 10 0 0,0
22.09.2018 05:00:00 16,4 15,4 16,3 21,1 20,1 5 3 9 5 N 1023,7 7 0 0,0
22.09.2018 04:00:00 16,8 15,8 16,8 21,2 20,2 4 2 9 5 NNW 1024,0 7 0 0,0
22.09.2018 03:00:00 17,1 16,0 16,9 21,2 20,1 0 0 3 2 N 1024,1 6 0 0,0
22.09.2018 02:00:00 17,1 16,0 16,9 21,2 20,1 2 1 3 2 W 1024,4 7 0 0,6
22.09.2018 01:00:00 17,3 15,8 16,9 21,2 20,1 0 0 6 4 N 1024,6 8 0 0,8
22.09.2018 00:00:00 17,7 15,9 17,1 21,3 20,1 4 2 11 6 N 1024,8 3,9 0 0,8
21.09.2018 23:00:00 18,7 15,9 18,2 21,3 20,1 5 3 10 5 NNW 1024,0 20 0 0,0
21.09.2018 22:00:00 19,1 15,6 18,3 21,2 20,1 5 3 13 7 NW 1023,7 20 0 0,0
21.09.2018 21:00:00 19,2 15,9 18,4 21,2 20,1 0 0 5 3 N 1022,7 20 0 0,0
21.09.2018 20:00:00 20,5 14,6 18,8 21,2 20,2 4 2 11 6 W 1021,7 17 0 0,0
21.09.2018 19:00:00 21,4 14,8 20,5 21,1 20,1 6 4 16 9 WNW 1021,3 20 0 0,0
21.09.2018 18:00:00 22,3 14,9 21,5 21,0 20,1 8 4 14 8 WNW 1020,7 20 0 0,0
21.09.2018 17:00:00 23,4 14,4 24,4 20,9 20,1 6 3 15 8 NW 1019,6 20 0 0,0
21.09.2018 16:00:00 23,8 14,8 25,9 20,8 20,1 0 0 18 10 N 1019,3 20 7 0,0
21.09.2018 15:00:00 24,0 15,0 28,0 20,8 20,1 10 5 16 9 NW 1019,5 20 40 0,0
21.09.2018 14:00:00 22,9 13,9 27,8 20,7 20,1 9 5 15 8 NW 1020,2 20 19 0,0
21.09.2018 13:00:00 22,2 16,0 23,1 20,7 20,1 2 1 11 6 WSW 1020,6 17 6 0,0
21.09.2018 12:00:00 20,0 16,2 21,9 20,8 20,1 4 2 16 9 NW 1021,3 19 6 0,0
21.09.2018 11:00:00 19,2 15,7 22,9 20,9 20,1 7 4 12 7 NNW 1020,9 18 49 0,0
21.09.2018 10:00:00 17,6 15,4 15,5 20,9 20,1 10 5 14 8 SSE 1020,5 15 12 0,0
21.09.2018 09:00:00 15,2 13,7 13,7 21,0 20,1 6 3 10 5 ENE 1020,4 19 0 0,0
21.09.2018 08:00:00 13,5 12,6 10,6 21,1 20,1 2 1 9 5 SSW 1020,2 20 0 0,0
21.09.2018 07:00:00 13,3 11,7 10,6 21,2 20,1 2 1 12 6 ESE 1019,5 20 0 0,0
21.09.2018 06:00:00 13,5 12,1 10,8 21,3 20,1 4 2 9 5 SSE 1018,8 20 0 0,0
21.09.2018 05:00:00 13,3 11,7 10,9 21,4 20,1 0 0 8 5 N 1018,8 20 0 0,0
21.09.2018 04:00:00 15,9 12,3 12,7 21,4 20,1 4 2 13 7 E 1017,8 20 0 0,0
21.09.2018 03:00:00 16,3 12,8 13,1 21,5 20,1 0 0 23 12 N 1017,8 20 0 0,0
21.09.2018 02:00:00 18,8 12,8 15,5 21,6 20,1 14 8 31 17 SSE 1016,6 20 0 0,0
21.09.2018 01:00:00 19,9 12,9 18,2 21,6 20,1 22 12 39 21 SE 1016,6 20 0 0,0
21.09.2018 00:00:00 19,9 13,4 18,6 21,6 20,1 24 13 34 18 SE 1016,9 20 0 0,0
20.09.2018 23:00:00 20,6 13,8 18,9 21,7 20,1 18 10 33 18 SE 1017,0 20 0 0,0
20.09.2018 22:00:00 21,6 14,0 19,0 21,6 20,1 18 10 29 16 SE 1016,8 20 0 0,0
20.09.2018 21:00:00 21,3 14,5 16,8 21,5 20,1 15 8 22 12 SE 1016,7 20 0 0,0
20.09.2018 20:00:00 21,2 15,1 18,0 21,4 20,1 3 2 8 5 SSE 1016,4 20 24 0,0
20.09.2018 19:00:00 25,9 18,1 28,4 21,3 20,1 5 3 8 4 SW 1015,6 20 60 0,0
20.09.2018 18:00:00 29,1 15,6 35,4 21,2 20,1 3 2 9 5 S 1015,3 20 60 0,0
20.09.2018 17:00:00 29,8 15,5 36,4 21,0 20,1 4 2 9 5 WNW 1015,6 20 60 0,0

tt = Température de l'air
td = dewpoint
tt 5cm = Température de l'air 5cm
tt -20cm = Température de l'air -20cm
tt -100cm = Température de l'air -100cm
ff = Vitesse du vent
fx = gusts
dd = Direction du vent
ppp = reduced air pressure
vv = visibility
sd = Ensoleillement
rr = Quantités de précipitations

stations d'obs. à proximité